contact:dominique.lefevre@mio.osupytheas.fr, maurice.libes@osupytheas.fr, didier.mallarino@osupytheas.fr
Project:EMSO http://www.emso-fr.org/EMSO-France
Depth: 2436.0 m
Title:EMSO Ligure Ouest : Data MII capteur MICROCAT
DateTime_Computer,Latitude,Longitude,Temperature,Conductivity,Pressure,DateTime_Instrument
DateTime_Computer,Latitude,Longitude,degC,S m-1,dbar,DateTime_Instrument
2022-12-28T00:00:51Z,42.805,6.029,13.3015,4.60068,2470.646,2022-12-28T02:06:53Z
2022-12-28T00:03:55Z,42.805,6.029,13.3015,4.60069,2470.67,2022-12-28T02:09:56Z
2022-12-28T00:06:58Z,42.805,6.029,13.3013,4.60069,2470.624,2022-12-28T02:12:59Z
2022-12-28T00:10:01Z,42.805,6.029,13.3013,4.60067,2470.646,2022-12-28T02:16:02Z
2022-12-28T00:13:04Z,42.805,6.029,13.3014,4.60068,2470.624,2022-12-28T02:19:05Z
2022-12-28T00:16:07Z,42.805,6.029,13.3015,4.60068,2470.6,2022-12-28T02:22:08Z
2022-12-28T00:19:10Z,42.805,6.029,13.3015,4.60073,2470.6,2022-12-28T02:25:11Z
2022-12-28T00:22:13Z,42.805,6.029,13.3014,4.60072,2470.637,2022-12-28T02:28:14Z
2022-12-28T00:25:16Z,42.805,6.029,13.3017,4.60069,2470.624,2022-12-28T02:31:18Z
2022-12-28T00:28:19Z,42.805,6.029,13.3011,4.60067,2470.637,2022-12-28T02:34:21Z
2022-12-28T00:31:22Z,42.805,6.029,13.3014,4.60069,2470.614,2022-12-28T02:37:24Z
2022-12-28T00:34:25Z,42.805,6.029,13.3015,4.60068,2470.646,2022-12-28T02:40:27Z
2022-12-28T00:37:28Z,42.805,6.029,13.3013,4.60067,2470.624,2022-12-28T02:43:30Z
2022-12-28T00:40:32Z,42.805,6.029,13.3016,4.60074,2470.646,2022-12-28T02:46:33Z
2022-12-28T00:43:35Z,42.805,6.029,13.3011,4.60070,2470.614,2022-12-28T02:49:36Z
2022-12-28T00:46:38Z,42.805,6.029,13.3013,4.60069,2470.624,2022-12-28T02:52:39Z
2022-12-28T00:49:41Z,42.805,6.029,13.3016,4.60069,2470.61,2022-12-28T02:55:42Z
2022-12-28T00:52:44Z,42.805,6.029,13.3013,4.60072,2470.646,2022-12-28T02:58:45Z
2022-12-28T00:55:47Z,42.805,6.029,13.3014,4.60067,2470.6,2022-12-28T03:01:48Z
2022-12-28T00:58:50Z,42.805,6.029,13.3011,4.60068,2470.661,2022-12-28T03:04:51Z
2022-12-28T01:01:53Z,42.805,6.029,13.3014,4.60067,2470.637,2022-12-28T03:07:55Z
2022-12-28T01:04:56Z,42.805,6.029,13.3014,4.60070,2470.646,2022-12-28T03:10:58Z
2022-12-28T01:07:59Z,42.805,6.029,13.3011,4.60068,2470.637,2022-12-28T03:14:01Z
2022-12-28T01:11:02Z,42.805,6.029,13.3009,4.60074,2470.661,2022-12-28T03:17:04Z
2022-12-28T01:14:05Z,42.805,6.029,13.3015,4.60069,2470.624,2022-12-28T03:20:07Z
2022-12-28T01:17:09Z,42.805,6.029,13.3017,4.60071,2470.624,2022-12-28T03:23:10Z
2022-12-28T01:20:12Z,42.805,6.029,13.3014,4.60072,2470.661,2022-12-28T03:26:13Z
2022-12-28T01:23:15Z,42.805,6.029,13.3014,4.60074,2470.624,2022-12-28T03:29:16Z
2022-12-28T01:26:18Z,42.805,6.029,13.3008,4.60068,2470.6,2022-12-28T03:32:19Z
2022-12-28T01:29:21Z,42.805,6.029,13.3016,4.60075,2470.624,2022-12-28T03:35:22Z
2022-12-28T01:32:24Z,42.805,6.029,13.3015,4.60068,2470.6,2022-12-28T03:38:25Z
2022-12-28T01:35:27Z,42.805,6.029,13.3012,4.60067,2470.614,2022-12-28T03:41:29Z
2022-12-28T01:38:30Z,42.805,6.029,13.3011,4.60067,2470.586,2022-12-28T03:44:32Z
2022-12-28T01:41:33Z,42.805,6.029,13.3014,4.60067,2470.624,2022-12-28T03:47:35Z
2022-12-28T01:44:36Z,42.805,6.029,13.3015,4.60069,2470.577,2022-12-28T03:50:38Z
2022-12-28T01:47:39Z,42.805,6.029,13.3014,4.60068,2470.624,2022-12-28T03:53:41Z
2022-12-28T01:50:43Z,42.805,6.029,13.3010,4.60070,2470.577,2022-12-28T03:56:44Z
2022-12-28T01:53:46Z,42.805,6.029,13.3011,4.60067,2470.637,2022-12-28T03:59:47Z
2022-12-28T01:56:49Z,42.805,6.029,13.3018,4.60067,2470.614,2022-12-28T04:02:50Z
2022-12-28T01:59:52Z,42.805,6.029,13.3015,4.60067,2470.624,2022-12-28T04:05:53Z
2022-12-28T02:02:55Z,42.805,6.029,13.3015,4.60068,2470.624,2022-12-28T04:08:56Z
2022-12-28T02:05:58Z,42.805,6.029,13.3015,4.60067,2470.637,2022-12-28T04:11:59Z
2022-12-28T02:09:01Z,42.805,6.029,13.3015,4.60072,2470.6,2022-12-28T04:15:02Z
2022-12-28T02:12:04Z,42.805,6.029,13.3021,4.60079,2470.6,2022-12-28T04:18:06Z
2022-12-28T02:15:07Z,42.805,6.029,13.3014,4.60073,2470.624,2022-12-28T04:21:09Z
2022-12-28T02:18:10Z,42.805,6.029,13.3014,4.60069,2470.6,2022-12-28T04:24:12Z
2022-12-28T02:21:13Z,42.805,6.029,13.3016,4.60076,2470.61,2022-12-28T04:27:15Z
2022-12-28T02:24:16Z,42.805,6.029,13.3015,4.60074,2470.6,2022-12-28T04:30:18Z
2022-12-28T02:27:20Z,42.805,6.029,13.3019,4.60072,2470.577,2022-12-28T04:33:21Z
2022-12-28T02:30:23Z,42.805,6.029,13.3018,4.60074,2470.591,2022-12-28T04:36:24Z
2022-12-28T02:33:26Z,42.805,6.029,13.3015,4.60076,2470.577,2022-12-28T04:39:27Z
2022-12-28T02:36:29Z,42.805,6.029,13.3013,4.60073,2470.614,2022-12-28T04:42:30Z
2022-12-28T02:39:32Z,42.805,6.029,13.3015,4.60074,2470.614,2022-12-28T04:45:33Z
2022-12-28T02:42:35Z,42.805,6.029,13.3013,4.60068,2470.6,2022-12-28T04:48:36Z
2022-12-28T02:45:38Z,42.805,6.029,13.3015,4.60069,2470.577,2022-12-28T04:51:40Z
2022-12-28T02:48:41Z,42.805,6.029,13.3016,4.60069,2470.577,2022-12-28T04:54:43Z
2022-12-28T02:51:44Z,42.805,6.029,13.3017,4.60072,2470.577,2022-12-28T04:57:46Z
2022-12-28T02:54:47Z,42.805,6.029,13.3015,4.60069,2470.544,2022-12-28T05:00:49Z
2022-12-28T02:57:50Z,42.805,6.029,13.3013,4.60069,2470.577,2022-12-28T05:03:52Z
2022-12-28T03:00:53Z,42.805,6.029,13.3011,4.60067,2470.591,2022-12-28T05:06:55Z
2022-12-28T03:03:57Z,42.805,6.029,13.3013,4.60068,2470.577,2022-12-28T05:09:58Z
2022-12-28T03:07:00Z,42.805,6.029,13.3013,4.60067,2470.577,2022-12-28T05:13:01Z
2022-12-28T03:10:03Z,42.805,6.029,13.3014,4.60069,2470.567,2022-12-28T05:16:04Z
2022-12-28T03:13:06Z,42.805,6.029,13.3015,4.60067,2470.577,2022-12-28T05:19:07Z
2022-12-28T03:16:09Z,42.805,6.029,13.3015,4.60068,2470.553,2022-12-28T05:22:10Z
2022-12-28T03:19:12Z,42.805,6.029,13.3012,4.60068,2470.553,2022-12-28T05:25:13Z
2022-12-28T03:22:15Z,42.805,6.029,13.3012,4.60072,2470.591,2022-12-28T05:28:17Z
2022-12-28T03:25:18Z,42.805,6.029,13.3011,4.60072,2470.567,2022-12-28T05:31:20Z
2022-12-28T03:28:21Z,42.805,6.029,13.3011,4.60073,2470.567,2022-12-28T05:34:23Z
2022-12-28T03:31:24Z,42.805,6.029,13.3013,4.60072,2470.591,2022-12-28T05:37:26Z
2022-12-28T03:34:27Z,42.805,6.029,13.3015,4.60068,2470.591,2022-12-28T05:40:29Z
2022-12-28T03:37:31Z,42.805,6.029,13.3011,4.60067,2470.591,2022-12-28T05:43:32Z
2022-12-28T03:40:34Z,42.805,6.029,13.3014,4.60073,2470.516,2022-12-28T05:46:35Z
2022-12-28T03:43:37Z,42.805,6.029,13.3016,4.60072,2470.553,2022-12-28T05:49:38Z
2022-12-28T03:46:40Z,42.805,6.029,13.3012,4.60072,2470.553,2022-12-28T05:52:41Z
2022-12-28T03:49:43Z,42.805,6.029,13.3015,4.60072,2470.577,2022-12-28T05:55:44Z
2022-12-28T03:52:46Z,42.805,6.029,13.3015,4.60069,2470.553,2022-12-28T05:58:47Z
2022-12-28T03:55:49Z,42.805,6.029,13.3013,4.60069,2470.544,2022-12-28T06:01:51Z
2022-12-28T03:58:52Z,42.805,6.029,13.3015,4.60067,2470.591,2022-12-28T06:04:54Z
2022-12-28T04:01:55Z,42.805,6.029,13.3020,4.60067,2470.553,2022-12-28T06:07:57Z
2022-12-28T04:04:58Z,42.805,6.029,13.3051,4.60089,2470.53,2022-12-28T06:11:00Z
2022-12-28T04:08:01Z,42.805,6.029,13.3017,4.60079,2470.553,2022-12-28T06:14:03Z
2022-12-28T04:11:04Z,42.805,6.029,13.3030,4.60074,2470.553,2022-12-28T06:17:06Z
2022-12-28T04:14:08Z,42.805,6.029,13.3017,4.60075,2470.52,2022-12-28T06:20:09Z
2022-12-28T04:17:11Z,42.805,6.029,13.3048,4.60102,2470.567,2022-12-28T06:23:12Z
2022-12-28T04:20:14Z,42.805,6.029,13.3030,4.60086,2470.567,2022-12-28T06:26:15Z
2022-12-28T04:23:17Z,42.805,6.029,13.3015,4.60077,2470.53,2022-12-28T06:29:18Z
2022-12-28T04:26:20Z,42.805,6.029,13.3027,4.60074,2470.567,2022-12-28T06:32:21Z
2022-12-28T04:29:23Z,42.805,6.029,13.3031,4.60094,2470.544,2022-12-28T06:35:24Z
2022-12-28T04:32:26Z,42.805,6.029,13.3019,4.60079,2470.553,2022-12-28T06:38:28Z
2022-12-28T04:35:29Z,42.805,6.029,13.3026,4.60081,2470.577,2022-12-28T06:41:31Z
2022-12-28T04:38:32Z,42.805,6.029,13.3047,4.60112,2470.577,2022-12-28T06:44:34Z
2022-12-28T04:41:35Z,42.805,6.029,13.3037,4.60084,2470.567,2022-12-28T06:47:37Z
2022-12-28T04:44:38Z,42.805,6.029,13.3040,4.60100,2470.53,2022-12-28T06:50:40Z
2022-12-28T04:47:41Z,42.805,6.029,13.3046,4.60096,2470.553,2022-12-28T06:53:43Z
2022-12-28T04:50:45Z,42.805,6.029,13.3046,4.60108,2470.553,2022-12-28T06:56:46Z
2022-12-28T04:53:48Z,42.805,6.029,13.3047,4.60092,2470.591,2022-12-28T06:59:49Z
2022-12-28T04:56:51Z,42.805,6.029,13.3058,4.60091,2470.544,2022-12-28T07:02:52Z
2022-12-28T04:59:54Z,42.805,6.029,13.3038,4.60125,2470.553,2022-12-28T07:05:55Z
2022-12-28T05:02:57Z,42.805,6.029,13.3035,4.60106,2470.553,2022-12-28T07:08:58Z
2022-12-28T05:06:00Z,42.805,6.029,13.3046,4.60127,2470.507,2022-12-28T07:12:01Z
2022-12-28T05:09:03Z,42.805,6.029,13.3058,4.60151,2470.567,2022-12-28T07:15:05Z
2022-12-28T05:12:06Z,42.805,6.029,13.3030,4.60106,2470.567,2022-12-28T07:18:08Z
2022-12-28T05:15:09Z,42.805,6.029,13.3049,4.60099,2470.553,2022-12-28T07:21:11Z
2022-12-28T05:18:12Z,42.805,6.029,13.3034,4.60089,2470.591,2022-12-28T07:24:14Z
2022-12-28T05:21:15Z,42.805,6.029,13.3046,4.60097,2470.53,2022-12-28T07:27:17Z
2022-12-28T05:24:18Z,42.805,6.029,13.3054,4.60133,2470.553,2022-12-28T07:30:20Z
2022-12-28T05:27:22Z,42.805,6.029,13.3047,4.60144,2470.52,2022-12-28T07:33:23Z
2022-12-28T05:30:25Z,42.805,6.029,13.3044,4.60135,2470.53,2022-12-28T07:36:26Z
2022-12-28T05:33:28Z,42.805,6.029,13.3041,4.60099,2470.553,2022-12-28T07:39:29Z
2022-12-28T05:36:31Z,42.805,6.029,13.3030,4.60092,2470.553,2022-12-28T07:42:32Z
2022-12-28T05:39:34Z,42.805,6.029,13.3034,4.60137,2470.553,2022-12-28T07:45:35Z
2022-12-28T05:42:37Z,42.805,6.029,13.3032,4.60130,2470.544,2022-12-28T07:48:39Z
2022-12-28T05:45:40Z,42.805,6.029,13.3034,4.60126,2470.544,2022-12-28T07:51:42Z
2022-12-28T05:48:43Z,42.805,6.029,13.3031,4.60134,2470.544,2022-12-28T07:54:45Z
2022-12-28T05:51:46Z,42.805,6.029,13.3030,4.60167,2470.53,2022-12-28T07:57:48Z
2022-12-28T05:54:49Z,42.805,6.029,13.3034,4.60160,2470.567,2022-12-28T08:00:51Z
2022-12-28T05:57:52Z,42.805,6.029,13.3038,4.60132,2470.553,2022-12-28T08:03:54Z
2022-12-28T06:00:55Z,42.805,6.029,13.3033,4.60130,2470.544,2022-12-28T08:06:57Z
2022-12-28T06:03:59Z,42.805,6.029,13.3039,4.60111,2470.553,2022-12-28T08:10:00Z
2022-12-28T06:07:02Z,42.805,6.029,13.3035,4.60162,2470.553,2022-12-28T08:13:03Z
2022-12-28T06:10:05Z,42.805,6.029,13.3048,4.60139,2470.553,2022-12-28T08:16:06Z
2022-12-28T06:13:08Z,42.805,6.029,13.3025,4.60143,2470.553,2022-12-28T08:19:09Z
2022-12-28T06:16:11Z,42.805,6.029,13.3027,4.60137,2470.614,2022-12-28T08:22:12Z
2022-12-28T06:19:14Z,42.805,6.029,13.3028,4.60125,2470.553,2022-12-28T08:25:16Z
2022-12-28T06:22:17Z,42.805,6.029,13.3034,4.60144,2470.567,2022-12-28T08:28:19Z
2022-12-28T06:25:20Z,42.805,6.029,13.3048,4.60132,2470.553,2022-12-28T08:31:22Z
2022-12-28T06:28:23Z,42.805,6.029,13.3034,4.60141,2470.553,2022-12-28T08:34:25Z
2022-12-28T06:31:26Z,42.805,6.029,13.3029,4.60132,2470.577,2022-12-28T08:37:28Z
2022-12-28T06:34:29Z,42.805,6.029,13.3032,4.60158,2470.567,2022-12-28T08:40:31Z
2022-12-28T06:37:32Z,42.805,6.029,13.3050,4.60164,2470.567,2022-12-28T08:43:34Z
2022-12-28T06:40:36Z,42.805,6.029,13.3046,4.60148,2470.614,2022-12-28T08:46:37Z
2022-12-28T06:43:39Z,42.805,6.029,13.3039,4.60117,2470.544,2022-12-28T08:49:40Z
2022-12-28T06:46:42Z,42.805,6.029,13.3051,4.60140,2470.577,2022-12-28T08:52:43Z
2022-12-28T06:49:45Z,42.805,6.029,13.3041,4.60139,2470.577,2022-12-28T08:55:46Z
2022-12-28T06:52:48Z,42.805,6.029,13.3050,4.60152,2470.6,2022-12-28T08:58:50Z
2022-12-28T06:55:51Z,42.805,6.029,13.3041,4.60137,2470.614,2022-12-28T09:01:53Z
2022-12-28T06:58:54Z,42.805,6.029,13.3045,4.60104,2470.614,2022-12-28T09:04:56Z
2022-12-28T07:01:57Z,42.805,6.029,13.3047,4.60144,2470.577,2022-12-28T09:07:59Z
2022-12-28T07:05:00Z,42.805,6.029,13.3048,4.60135,2470.614,2022-12-28T09:11:02Z
2022-12-28T07:08:03Z,42.805,6.029,13.3059,4.60158,2470.614,2022-12-28T09:14:05Z
2022-12-28T07:11:06Z,42.805,6.029,13.3061,4.60166,2470.637,2022-12-28T09:17:08Z
2022-12-28T07:14:09Z,42.805,6.029,13.3053,4.60155,2470.577,2022-12-28T09:20:11Z
2022-12-28T07:17:13Z,42.805,6.029,13.3048,4.60148,2470.6,2022-12-28T09:23:14Z
2022-12-28T07:20:16Z,42.805,6.029,13.3029,4.60137,2470.661,2022-12-28T09:26:17Z
2022-12-28T07:23:19Z,42.805,6.029,13.3036,4.60148,2470.6,2022-12-28T09:29:20Z
2022-12-28T07:26:22Z,42.805,6.029,13.3043,4.60118,2470.661,2022-12-28T09:32:23Z
2022-12-28T07:29:25Z,42.805,6.029,13.3033,4.60157,2470.624,2022-12-28T09:35:27Z
2022-12-28T07:32:28Z,42.805,6.029,13.3041,4.60152,2470.637,2022-12-28T09:38:30Z
2022-12-28T07:35:31Z,42.805,6.029,13.3035,4.60098,2470.614,2022-12-28T09:41:33Z
2022-12-28T07:38:34Z,42.805,6.029,13.3033,4.60119,2470.637,2022-12-28T09:44:36Z
2022-12-28T07:41:37Z,42.805,6.029,13.3035,4.60137,2470.646,2022-12-28T09:47:39Z
2022-12-28T07:44:40Z,42.805,6.029,13.3034,4.60131,2470.661,2022-12-28T09:50:42Z
2022-12-28T07:47:43Z,42.805,6.029,13.3046,4.60107,2470.67,2022-12-28T09:53:45Z
2022-12-28T07:50:46Z,42.805,6.029,13.3047,4.60144,2470.67,2022-12-28T09:56:48Z
2022-12-28T07:53:50Z,42.805,6.029,13.3051,4.60147,2470.633,2022-12-28T09:59:51Z
2022-12-28T07:56:53Z,42.805,6.029,13.3047,4.60139,2470.693,2022-12-28T10:02:54Z
2022-12-28T07:59:56Z,42.805,6.029,13.3046,4.60114,2470.684,2022-12-28T10:05:57Z
2022-12-28T08:02:59Z,42.805,6.029,13.3031,4.60137,2470.67,2022-12-28T10:09:01Z
2022-12-28T08:06:02Z,42.805,6.029,13.3027,4.60119,2470.67,2022-12-28T10:12:04Z
2022-12-28T08:09:05Z,42.805,6.029,13.3031,4.60149,2470.646,2022-12-28T10:15:07Z
2022-12-28T08:12:08Z,42.805,6.029,13.3040,4.60132,2470.693,2022-12-28T10:18:10Z
2022-12-28T08:15:11Z,42.805,6.029,13.3034,4.60141,2470.693,2022-12-28T10:21:13Z
2022-12-28T08:18:14Z,42.805,6.029,13.3034,4.60125,2470.693,2022-12-28T10:24:16Z
2022-12-28T08:21:17Z,42.805,6.029,13.3047,4.60117,2470.693,2022-12-28T10:27:19Z
2022-12-28T08:24:20Z,42.805,6.029,13.3053,4.60119,2470.754,2022-12-28T10:30:22Z
2022-12-28T08:27:24Z,42.805,6.029,13.3042,4.60144,2470.707,2022-12-28T10:33:25Z
2022-12-28T08:30:27Z,42.805,6.029,13.3046,4.60175,2470.73,2022-12-28T10:36:28Z
2022-12-28T08:33:30Z,42.805,6.029,13.3032,4.60120,2470.717,2022-12-28T10:39:31Z
2022-12-28T08:36:33Z,42.805,6.029,13.3035,4.60156,2470.693,2022-12-28T10:42:34Z
2022-12-28T08:39:36Z,42.805,6.029,13.3037,4.60180,2470.74,2022-12-28T10:45:38Z
2022-12-28T08:42:39Z,42.805,6.029,13.3054,4.60144,2470.717,2022-12-28T10:48:41Z
2022-12-28T08:45:42Z,42.805,6.029,13.3030,4.60135,2470.74,2022-12-28T10:51:44Z
2022-12-28T08:48:45Z,42.805,6.029,13.3041,4.60140,2470.754,2022-12-28T10:54:47Z
2022-12-28T08:51:48Z,42.805,6.029,13.3041,4.60119,2470.717,2022-12-28T10:57:50Z
2022-12-28T08:54:51Z,42.805,6.029,13.3029,4.60122,2470.74,2022-12-28T11:00:53Z
2022-12-28T08:57:54Z,42.805,6.029,13.3039,4.60157,2470.74,2022-12-28T11:03:56Z
2022-12-28T09:00:58Z,42.805,6.029,13.3039,4.60151,2470.74,2022-12-28T11:06:59Z
2022-12-28T09:04:01Z,42.805,6.029,13.3040,4.60154,2470.754,2022-12-28T11:10:02Z
2022-12-28T09:07:04Z,42.805,6.029,13.3041,4.60144,2470.717,2022-12-28T11:13:05Z
2022-12-28T09:10:07Z,42.805,6.029,13.3052,4.60129,2470.777,2022-12-28T11:16:08Z
2022-12-28T09:13:10Z,42.805,6.029,13.3033,4.60152,2470.754,2022-12-28T11:19:12Z
2022-12-28T09:16:13Z,42.805,6.029,13.3034,4.60131,2470.717,2022-12-28T11:22:15Z
2022-12-28T09:19:16Z,42.805,6.029,13.3034,4.60127,2470.777,2022-12-28T11:25:18Z
2022-12-28T09:22:19Z,42.805,6.029,13.3037,4.60146,2470.777,2022-12-28T11:28:21Z
2022-12-28T09:25:22Z,42.805,6.029,13.3043,4.60127,2470.763,2022-12-28T11:31:24Z
2022-12-28T09:28:25Z,42.805,6.029,13.3052,4.60170,2470.754,2022-12-28T11:34:27Z
2022-12-28T09:31:28Z,42.805,6.029,13.3043,4.60175,2470.787,2022-12-28T11:37:30Z
2022-12-28T09:34:32Z,42.805,6.029,13.3045,4.60173,2470.74,2022-12-28T11:40:33Z
2022-12-28T09:37:35Z,42.805,6.029,13.3053,4.60124,2470.726,2022-12-28T11:43:36Z
2022-12-28T09:40:38Z,42.805,6.029,13.3044,4.60126,2470.763,2022-12-28T11:46:39Z
2022-12-28T09:43:41Z,42.805,6.029,13.3035,4.60164,2470.763,2022-12-28T11:49:43Z
2022-12-28T09:46:44Z,42.805,6.029,13.3057,4.60170,2470.763,2022-12-28T11:52:46Z
2022-12-28T09:49:47Z,42.805,6.029,13.3051,4.60135,2470.8,2022-12-28T11:55:49Z
2022-12-28T09:52:50Z,42.805,6.029,13.3067,4.60163,2470.81,2022-12-28T11:58:52Z
2022-12-28T09:55:53Z,42.805,6.029,13.3053,4.60143,2470.763,2022-12-28T12:01:55Z
2022-12-28T09:58:56Z,42.805,6.029,13.3049,4.60149,2470.8,2022-12-28T12:04:58Z
2022-12-28T10:01:59Z,42.805,6.029,13.3043,4.60141,2470.8,2022-12-28T12:08:01Z
2022-12-28T10:05:02Z,42.805,6.029,13.3041,4.60143,2470.787,2022-12-28T12:11:04Z
2022-12-28T10:08:05Z,42.805,6.029,13.3039,4.60143,2470.787,2022-12-28T12:14:07Z
2022-12-28T10:11:09Z,42.805,6.029,13.3043,4.60126,2470.787,2022-12-28T12:17:10Z
2022-12-28T10:14:12Z,42.805,6.029,13.3034,4.60144,2470.824,2022-12-28T12:20:13Z
2022-12-28T10:17:15Z,42.805,6.029,13.3044,4.60166,2470.8,2022-12-28T12:23:16Z
2022-12-28T10:20:18Z,42.805,6.029,13.3051,4.60120,2470.81,2022-12-28T12:26:20Z
2022-12-28T10:23:21Z,42.805,6.029,13.3044,4.60135,2470.833,2022-12-28T12:29:23Z
2022-12-28T10:26:24Z,42.805,6.029,13.3032,4.60125,2470.763,2022-12-28T12:32:26Z
2022-12-28T10:29:27Z,42.805,6.029,13.3048,4.60157,2470.81,2022-12-28T12:35:29Z
2022-12-28T10:32:30Z,42.805,6.029,13.3027,4.60163,2470.8,2022-12-28T12:38:32Z
2022-12-28T10:35:33Z,42.805,6.029,13.3041,4.60160,2470.81,2022-12-28T12:41:35Z
2022-12-28T10:38:36Z,42.805,6.029,13.3038,4.60135,2470.824,2022-12-28T12:44:38Z
2022-12-28T10:41:39Z,42.805,6.029,13.3036,4.60132,2470.8,2022-12-28T12:47:41Z
2022-12-28T10:44:43Z,42.805,6.029,13.3041,4.60144,2470.787,2022-12-28T12:50:44Z
2022-12-28T10:47:46Z,42.805,6.029,13.3029,4.60112,2470.787,2022-12-28T12:53:47Z
2022-12-28T10:50:49Z,42.805,6.029,13.3029,4.60107,2470.824,2022-12-28T12:56:51Z
2022-12-28T10:53:52Z,42.805,6.029,13.3026,4.60143,2470.787,2022-12-28T12:59:54Z
2022-12-28T10:56:55Z,42.805,6.029,13.3022,4.60110,2470.833,2022-12-28T13:02:57Z
2022-12-28T10:59:58Z,42.805,6.029,13.3030,4.60134,2470.824,2022-12-28T13:06:00Z
2022-12-28T11:03:01Z,42.805,6.029,13.3026,4.60141,2470.787,2022-12-28T13:09:03Z
2022-12-28T11:06:04Z,42.805,6.029,13.3052,4.60148,2470.787,2022-12-28T13:12:06Z
2022-12-28T11:09:07Z,42.805,6.029,13.3033,4.60134,2470.777,2022-12-28T13:15:09Z
2022-12-28T11:12:10Z,42.805,6.029,13.3026,4.60115,2470.824,2022-12-28T13:18:12Z
2022-12-28T11:15:13Z,42.805,6.029,13.3027,4.60114,2470.824,2022-12-28T13:21:15Z
2022-12-28T11:18:17Z,42.805,6.029,13.3040,4.60129,2470.777,2022-12-28T13:24:18Z
2022-12-28T11:21:20Z,42.805,6.029,13.3051,4.60144,2470.824,2022-12-28T13:27:21Z
2022-12-28T11:24:23Z,42.805,6.029,13.3038,4.60145,2470.81,2022-12-28T13:30:24Z
2022-12-28T11:27:26Z,42.805,6.029,13.3030,4.60134,2470.787,2022-12-28T13:33:28Z
2022-12-28T11:30:29Z,42.805,6.029,13.3029,4.60130,2470.787,2022-12-28T13:36:31Z
2022-12-28T11:33:32Z,42.805,6.029,13.3035,4.60112,2470.81,2022-12-28T13:39:34Z
2022-12-28T11:36:35Z,42.805,6.029,13.3031,4.60123,2470.787,2022-12-28T13:42:37Z
2022-12-28T11:39:38Z,42.805,6.029,13.3039,4.60127,2470.763,2022-12-28T13:45:40Z
2022-12-28T11:42:41Z,42.805,6.029,13.3039,4.60134,2470.796,2022-12-28T13:48:43Z
2022-12-28T11:45:44Z,42.805,6.029,13.3024,4.60149,2470.787,2022-12-28T13:51:46Z
2022-12-28T11:48:47Z,42.805,6.029,13.3039,4.60150,2470.81,2022-12-28T13:54:49Z
2022-12-28T11:51:51Z,42.805,6.029,13.3034,4.60112,2470.763,2022-12-28T13:57:52Z
2022-12-28T11:54:54Z,42.805,6.029,13.3036,4.60108,2470.787,2022-12-28T14:00:55Z
2022-12-28T11:57:57Z,42.805,6.029,13.3035,4.60134,2470.8,2022-12-28T14:03:59Z
2022-12-28T12:01:00Z,42.805,6.029,13.3030,4.60148,2470.787,2022-12-28T14:07:02Z
2022-12-28T12:04:03Z,42.805,6.029,13.3039,4.60156,2470.787,2022-12-28T14:10:05Z
2022-12-28T12:07:06Z,42.805,6.029,13.3029,4.60150,2470.8,2022-12-28T14:13:08Z
2022-12-28T12:10:09Z,42.805,6.029,13.3034,4.60165,2470.833,2022-12-28T14:16:11Z
2022-12-28T12:13:12Z,42.805,6.029,13.3031,4.60135,2470.763,2022-12-28T14:19:14Z
2022-12-28T12:16:15Z,42.805,6.029,13.3038,4.60117,2470.777,2022-12-28T14:22:17Z
2022-12-28T12:19:18Z,42.805,6.029,13.3027,4.60143,2470.824,2022-12-28T14:25:20Z
2022-12-28T12:22:21Z,42.805,6.029,13.3041,4.60112,2470.8,2022-12-28T14:28:23Z
2022-12-28T12:25:25Z,42.805,6.029,13.3031,4.60121,2470.763,2022-12-28T14:31:26Z
2022-12-28T12:28:28Z,42.805,6.029,13.3024,4.60137,2470.777,2022-12-28T14:34:29Z
2022-12-28T12:31:31Z,42.805,6.029,13.3029,4.60163,2470.763,2022-12-28T14:37:33Z
2022-12-28T12:34:34Z,42.805,6.029,13.3025,4.60117,2470.787,2022-12-28T14:40:36Z
2022-12-28T12:37:37Z,42.805,6.029,13.3029,4.60105,2470.777,2022-12-28T14:43:39Z
2022-12-28T12:40:40Z,42.805,6.029,13.3034,4.60119,2470.777,2022-12-28T14:46:42Z
2022-12-28T12:43:43Z,42.805,6.029,13.3041,4.60127,2470.81,2022-12-28T14:49:45Z
2022-12-28T12:46:46Z,42.805,6.029,13.3046,4.60123,2470.8,2022-12-28T14:52:48Z
2022-12-28T12:49:49Z,42.805,6.029,13.3034,4.60116,2470.8,2022-12-28T14:55:51Z
2022-12-28T12:52:52Z,42.805,6.029,13.3037,4.60112,2470.74,2022-12-28T14:58:54Z
2022-12-28T12:55:55Z,42.805,6.029,13.3039,4.60153,2470.763,2022-12-28T15:01:57Z
2022-12-28T12:58:59Z,42.805,6.029,13.3041,4.60120,2470.763,2022-12-28T15:05:00Z
2022-12-28T13:02:02Z,42.805,6.029,13.3039,4.60109,2470.787,2022-12-28T15:08:03Z
2022-12-28T13:05:05Z,42.805,6.029,13.3048,4.60114,2470.763,2022-12-28T15:11:07Z
2022-12-28T13:08:08Z,42.805,6.029,13.3041,4.60123,2470.777,2022-12-28T15:14:10Z
2022-12-28T13:11:11Z,42.805,6.029,13.3051,4.60122,2470.763,2022-12-28T15:17:13Z
2022-12-28T13:14:14Z,42.805,6.029,13.3037,4.60132,2470.717,2022-12-28T15:20:16Z
2022-12-28T13:17:17Z,42.805,6.029,13.3034,4.60131,2470.74,2022-12-28T15:23:19Z
2022-12-28T13:20:20Z,42.805,6.029,13.3040,4.60118,2470.777,2022-12-28T15:26:22Z
2022-12-28T13:23:23Z,42.805,6.029,13.3031,4.60117,2470.74,2022-12-28T15:29:25Z
2022-12-28T13:26:26Z,42.805,6.029,13.3032,4.60135,2470.763,2022-12-28T15:32:28Z
2022-12-28T13:29:29Z,42.805,6.029,13.3029,4.60098,2470.777,2022-12-28T15:35:31Z
2022-12-28T13:32:33Z,42.805,6.029,13.3038,4.60181,2470.74,2022-12-28T15:38:34Z
2022-12-28T13:35:36Z,42.805,6.029,13.3042,4.60112,2470.763,2022-12-28T15:41:38Z
2022-12-28T13:38:39Z,42.805,6.029,13.3035,4.60115,2470.763,2022-12-28T15:44:41Z
2022-12-28T13:41:42Z,42.805,6.029,13.3041,4.60123,2470.74,2022-12-28T15:47:44Z
2022-12-28T13:44:45Z,42.805,6.029,13.3047,4.60130,2470.763,2022-12-28T15:50:47Z
2022-12-28T13:47:48Z,42.805,6.029,13.3034,4.60142,2470.777,2022-12-28T15:53:50Z
2022-12-28T13:50:51Z,42.805,6.029,13.3048,4.60112,2470.717,2022-12-28T15:56:53Z
2022-12-28T13:53:54Z,42.805,6.029,13.3053,4.60126,2470.777,2022-12-28T15:59:56Z
2022-12-28T13:56:57Z,42.805,6.029,13.3046,4.60110,2470.754,2022-12-28T16:02:59Z
2022-12-28T14:00:00Z,42.805,6.029,13.3054,4.60126,2470.717,2022-12-28T16:06:02Z
2022-12-28T14:03:03Z,42.805,6.029,13.3050,4.60128,2470.717,2022-12-28T16:09:05Z
2022-12-28T14:06:07Z,42.805,6.029,13.3039,4.60183,2470.717,2022-12-28T16:12:08Z
2022-12-28T14:09:10Z,42.805,6.029,13.3036,4.60137,2470.74,2022-12-28T16:15:12Z
2022-12-28T14:12:13Z,42.805,6.029,13.3045,4.60120,2470.707,2022-12-28T16:18:15Z
2022-12-28T14:15:16Z,42.805,6.029,13.3052,4.60140,2470.74,2022-12-28T16:21:18Z
2022-12-28T14:18:19Z,42.805,6.029,13.3053,4.60200,2470.73,2022-12-28T16:24:21Z
2022-12-28T14:21:22Z,42.805,6.029,13.3054,4.60142,2470.74,2022-12-28T16:27:24Z
2022-12-28T14:24:25Z,42.805,6.029,13.3073,4.60149,2470.717,2022-12-28T16:30:27Z
2022-12-28T14:27:28Z,42.805,6.029,13.3048,4.60160,2470.717,2022-12-28T16:33:30Z
2022-12-28T14:30:31Z,42.805,6.029,13.3073,4.60134,2470.693,2022-12-28T16:36:33Z
2022-12-28T14:33:34Z,42.805,6.029,13.3039,4.60163,2470.73,2022-12-28T16:39:36Z
2022-12-28T14:36:38Z,42.805,6.029,13.3045,4.60119,2470.693,2022-12-28T16:42:39Z
2022-12-28T14:39:41Z,42.805,6.029,13.3043,4.60155,2470.707,2022-12-28T16:45:43Z
2022-12-28T14:42:44Z,42.805,6.029,13.3039,4.60152,2470.707,2022-12-28T16:48:46Z
2022-12-28T14:45:47Z,42.805,6.029,13.3047,4.60145,2470.717,2022-12-28T16:51:49Z
2022-12-28T14:48:50Z,42.805,6.029,13.3070,4.60135,2470.707,2022-12-28T16:54:52Z
2022-12-28T14:51:53Z,42.805,6.029,13.3058,4.60157,2470.693,2022-12-28T16:57:55Z
2022-12-28T14:54:56Z,42.805,6.029,13.3048,4.60150,2470.684,2022-12-28T17:00:58Z
2022-12-28T14:57:59Z,42.805,6.029,13.3048,4.60173,2470.67,2022-12-28T17:04:01Z
2022-12-28T15:01:02Z,42.805,6.029,13.3057,4.60138,2470.707,2022-12-28T17:07:04Z